(°C)
-1°
(°C)
-6°
-7°
-8°
-8°
-9°
-8°
-8°
SW
SW
SW
SW
SW
SW
SW
(km/h)
30-52
30-52
31-52
31-52
31-51
30-50
29-50
(mm)
0
1
0
0
0
0
0
(%)
0
25
11
11
12
4
6

Wysokość słońca

/ -4.2°
sun-icon
UV 1
07:46
18:10
Ubywający Księżyc garbaty (201°)
18:55
09:24

METAR dla 51.02°N 71.47°E (UACC)

Czas Warunki Temperatura/
Punkt rosy
Wiatr Widzialność Pogoda Chmury Ciśn. atm. Zmień Surowy
MVFR 2°C / -1°C 220º 23kt 7000m Light Snow Light Rain 1.00mm precipitation Vertical Visibility of 0ft.
Overcast 2500ft
1019 No Significant change. Runway 22: Clear and dry, , friction coefficient 0.70. UACC 221200Z 22012MPS 7000 -SNRA BKN017 OVC025 02/M01 Q1019 R22/0///70 NOSIG RMK QFE733/0978
MVFR 3°C / -2°C 220º 25kt >10km - Overcast 1900ft 1019 Temporary: Visibility 5000. Light Showers Snow Rain . Broken Clouds 1100ft. Cumulonimbus RMK QFE733/0977 . Runway 22: Clear and dry, , friction coefficient 0.70. UACC 221130Z 22013MPS 9999 OVC019 03/M02 Q1019 R22/0///70 TEMPO 5000 -SHSNRA BKN011CB RMK QFE733/0977
MVFR 3°C / -2°C 220º 23kt 9000m - Scattered Clouds 1600ft
Broken Clouds 3000ft
1019 Temporary: Visibility 5000. Light Showers Snow Rain . Broken Clouds 1100ft. Cumulonimbus RMK QFE733/0977 . Runway 22: Clear and dry, , friction coefficient 0.70. UACC 221100Z 22012MPS 9000 SCT016 BKN030 03/M02 Q1019 R22/0///70 TEMPO 5000 -SHSNRA BKN011CB RMK QFE733/0977
VFR 3°C / -2°C 220º 27kt 9000m - Scattered Clouds 1600ft
Broken Clouds 3600ft
1019 Temporary: Visibility 5000. Light Showers Snow Rain . Broken Clouds 1100ft. Cumulonimbus RMK QFE733/0977 . Runway 22: Clear and dry, , friction coefficient 0.70. UACC 221030Z 22014MPS 9000 SCT016 BKN036 03/M02 Q1019 R22/0///70 TEMPO 5000 -SHSNRA BKN011CB RMK QFE733/0977
MVFR 3°C / -2°C 230º 29kt 6000m Light Rain 1.00mm precipitation Vertical Visibility of 0ft.
Overcast 3000ft
1019 No Significant change. Runway 22: Clear and dry, , friction coefficient 0.70. UACC 221000Z 23015MPS 6000 -RA SCT016 OVC030 03/M02 Q1019 R22/0///70 NOSIG RMK QFE733/0977
VFR 4°C / -3°C 230º 27kt Gust 39kt >10km - Scattered Clouds 1500ft
Broken Clouds 4000ft
1019 No Significant change. Runway 22: Clear and dry, , friction coefficient 0.70. UACC 220943Z 23014G20MPS 9999 SCT015 BKN040 04/M03 Q1019 R22/0///70 NOSIG RMK QFE733/0977
VFR 4°C / -3°C 230º 27kt >10km - Scattered Clouds 1500ft
Broken Clouds 4000ft
1019 No Significant change. Runway 22: Clear and dry, , friction coefficient 0.70. UACC 220930Z 23014MPS 9999 SCT015 BKN040 04/M03 Q1019 R22/0///70 NOSIG RMK QFE733/0977
VFR 4°C / -3°C 230º 27kt >10km - Scattered Clouds 1500ft
Broken Clouds 4000ft
1019 No Significant change. Runway 22: Clear and dry, , friction coefficient 0.70. UACC 220900Z 23014MPS 9999 SCT015 BKN040 04/M03 Q1019 R22/0///70 NOSIG RMK QFE733/0977
VFR 5°C / -5°C 230º 27kt Gust 37kt >10km - Scattered Clouds 1500ft
Broken Clouds 4000ft
1019 No Significant change. Runway 22: Clear and dry, , friction coefficient 0.70. UACC 220830Z 23014G19MPS 9999 SCT015 BKN040 05/M05 Q1019 R22/0///70 NOSIG RMK QFE733/0977
VFR 4°C / -5°C 230º 25kt Gust 35kt >10km - Scattered Clouds 1500ft
Broken Clouds 4000ft
1019 No Significant change. Runway 22: Clear and dry, , friction coefficient 0.70. UACC 220800Z 23013G18MPS 9999 SCT015 BKN040 04/M05 Q1019 R22/0///70 NOSIG RMK QFE733/0977
VFR 5°C / -5°C 230º 25kt >10km - Scattered Clouds 1400ft
Broken Clouds 3600ft
1019 No Significant change. Runway 22: Clear and dry, , friction coefficient 0.70. UACC 220730Z 23013MPS 9999 SCT014 BKN036 05/M05 Q1019 R22/0///70 NOSIG RMK QFE733/0977
VFR 4°C / -4°C 230º 25kt >10km - Scattered Clouds 1200ft
Broken Clouds 3600ft
1019 No Significant change. Runway 22: Clear and dry, , friction coefficient 0.70. UACC 220700Z 23013MPS 9999 SCT012 BKN036 04/M04 Q1019 R22/0///70 NOSIG RMK QFE733/0977
VFR 4°C / -4°C 220º 27kt >10km - Scattered Clouds 1000ft
Broken Clouds 3600ft
1019 No Significant change. Runway 22: Clear and dry, , friction coefficient 0.70. UACC 220630Z 22014MPS 9999 SCT010 BKN036 04/M04 Q1019 R22/0///70 NOSIG RMK QFE733/0977
VFR 3°C / -5°C 230º 25kt >10km - Few Clouds 3000ft
Broken Clouds 4300ft
1019 No Significant change. Runway 22: Clear and dry, , friction coefficient 0.70. UACC 220600Z 23013MPS 9999 FEW030CB BKN043 03/M05 Q1019 R22/0///70 NOSIG RMK QFE733/0977
VFR 3°C / -4°C 220º 23kt Gust 33kt >10km - Scattered Clouds 3000ft
Broken Clouds 4300ft
1019 No Significant change. Runway 22: Clear and dry, , friction coefficient 0.70. UACC 220543Z 22012G17MPS 9999 SCT030CB BKN043 03/M04 Q1019 R22/0///70 NOSIG RMK QFE733/0977
VFR 3°C / -5°C 220º 21kt >10km - Scattered Clouds 3000ft
Broken Clouds 4300ft
1019 No Significant change. Runway 22: Clear and dry, , friction coefficient 0.70. UACC 220530Z 22011MPS 9999 SCT030CB BKN043 03/M05 Q1019 R22/0///70 NOSIG RMK QFE733/0977
VFR 3°C / -4°C 220º 19kt Gust 29kt >10km - Scattered Clouds 2600ft
Broken Clouds 3600ft
1019 No Significant change. Runway 22: Clear and dry, , friction coefficient 0.70. UACC 220512Z 22010G15MPS 9999 SCT026CB BKN036 03/M04 Q1019 R22/0///70 NOSIG RMK QFE733/0977
VFR 2°C / -4°C 210º 19kt >10km - Scattered Clouds 1600ft
Broken Clouds 3600ft
1019 No Significant change. Runway 22: Clear and dry, , friction coefficient 0.70. UACC 220500Z 21010MPS 9999 SCT016CB BKN036 02/M04 Q1019 R22/0///70 NOSIG RMK QFE733/0977
VFR 2°C / -3°C 220º 19kt >10km - Scattered Clouds 1600ft
Broken Clouds 3600ft
1019 No Significant change. Runway 22: Clear and dry, , friction coefficient 0.70. UACC 220430Z 22010MPS 9999 SCT016 BKN036CB 02/M03 Q1019 R22/0///70 NOSIG RMK QFE733/0977
VFR 2°C / -3°C 220º 16kt >10km - Scattered Clouds 1600ft
Broken Clouds 3600ft
1019 No Significant change. Runway 22: Clear and dry, , friction coefficient 0.70. UACC 220400Z 22008MPS 9999 SCT016 BKN036CB 02/M03 Q1019 R22/0///70 NOSIG RMK QFE733/0977
VFR 1°C / -2°C 220º 16kt 9000m Light Showers Snow Light Showers Rain Showers Snow 3.00mm precipitation Vertical Visibility of 0ft.
Broken Clouds 3200ft
1019 No Significant change. Runway 22: Clear and dry, , friction coefficient 0.70. UACC 220330Z 22008MPS 9000 -SHSNRA SCT014 BKN032CB 01/M02 Q1019 RESHRA RESHSN R22/0///70 NOSIG RMK QFE733/0977
IFR 1°C / -2°C 220º 17kt 3000m Showers Snow Showers Rain 3.00mm precipitation Vertical Visibility of 0ft.
Broken Clouds 3000ft
1019 No Significant change. Runway 22: Clear and dry, , friction coefficient 0.70. UACC 220312Z 22009MPS 3000 SHSNRA SCT010 BKN030CB 01/M02 Q1019 R22/0///70 NOSIG RMK QFE733/0977
VFR 1°C / -2°C 220º 14kt >10km - Scattered Clouds 1000ft
Broken Clouds 4000ft
1018 No Significant change. Runway 22: Clear and dry, , friction coefficient 0.70. UACC 220300Z 22007MPS 9999 SCT010 BKN040CB 01/M02 Q1018 R22/0///70 NOSIG RMK QFE732/0977
MVFR 1°C / -2°C 230º 14kt >10km - Scattered Clouds 1000ft
Broken Clouds 3000ft
1018 No Significant change. Runway 22: Frost, 11-25% contamination, friction coefficient 0.55. UACC 220230Z 23007MPS 9999 SCT010 BKN030CB 01/M02 Q1018 R22/32//55 NOSIG RMK QFE732/0976

MVFR

2°C / -1°C

[Więcej]
Wiatr 220º 23kt
Widzialność 7000m
Pogoda Light Snow Light Rain 1.00mm precipitation
Chmury Vertical Visibility of 0ft.
Overcast 2500ft
Ciśn. atm. 1019
Zmień No Significant change. Runway 22: Clear and dry, , friction coefficient 0.70.
Surowy UACC 221200Z 22012MPS 7000 -SNRA BKN017 OVC025 02/M01 Q1019 R22/0///70 NOSIG RMK QFE733/0978

MVFR

3°C / -2°C

[Więcej]
Wiatr 220º 25kt
Widzialność >10km
Pogoda -
Chmury Overcast 1900ft
Ciśn. atm. 1019
Zmień Temporary: Visibility 5000. Light Showers Snow Rain . Broken Clouds 1100ft. Cumulonimbus RMK QFE733/0977 . Runway 22: Clear and dry, , friction coefficient 0.70.
Surowy UACC 221130Z 22013MPS 9999 OVC019 03/M02 Q1019 R22/0///70 TEMPO 5000 -SHSNRA BKN011CB RMK QFE733/0977

MVFR

3°C / -2°C

[Więcej]
Wiatr 220º 23kt
Widzialność 9000m
Pogoda -
Chmury Scattered Clouds 1600ft
Broken Clouds 3000ft
Ciśn. atm. 1019
Zmień Temporary: Visibility 5000. Light Showers Snow Rain . Broken Clouds 1100ft. Cumulonimbus RMK QFE733/0977 . Runway 22: Clear and dry, , friction coefficient 0.70.
Surowy UACC 221100Z 22012MPS 9000 SCT016 BKN030 03/M02 Q1019 R22/0///70 TEMPO 5000 -SHSNRA BKN011CB RMK QFE733/0977

VFR

3°C / -2°C

[Więcej]
Wiatr 220º 27kt
Widzialność 9000m
Pogoda -
Chmury Scattered Clouds 1600ft
Broken Clouds 3600ft
Ciśn. atm. 1019
Zmień Temporary: Visibility 5000. Light Showers Snow Rain . Broken Clouds 1100ft. Cumulonimbus RMK QFE733/0977 . Runway 22: Clear and dry, , friction coefficient 0.70.
Surowy UACC 221030Z 22014MPS 9000 SCT016 BKN036 03/M02 Q1019 R22/0///70 TEMPO 5000 -SHSNRA BKN011CB RMK QFE733/0977

MVFR

3°C / -2°C

[Więcej]
Wiatr 230º 29kt
Widzialność 6000m
Pogoda Light Rain 1.00mm precipitation
Chmury Vertical Visibility of 0ft.
Overcast 3000ft
Ciśn. atm. 1019
Zmień No Significant change. Runway 22: Clear and dry, , friction coefficient 0.70.
Surowy UACC 221000Z 23015MPS 6000 -RA SCT016 OVC030 03/M02 Q1019 R22/0///70 NOSIG RMK QFE733/0977

VFR

4°C / -3°C

[Więcej]
Wiatr 230º 27kt Gust 39kt
Widzialność >10km
Pogoda -
Chmury Scattered Clouds 1500ft
Broken Clouds 4000ft
Ciśn. atm. 1019
Zmień No Significant change. Runway 22: Clear and dry, , friction coefficient 0.70.
Surowy UACC 220943Z 23014G20MPS 9999 SCT015 BKN040 04/M03 Q1019 R22/0///70 NOSIG RMK QFE733/0977

VFR

4°C / -3°C

[Więcej]
Wiatr 230º 27kt
Widzialność >10km
Pogoda -
Chmury Scattered Clouds 1500ft
Broken Clouds 4000ft
Ciśn. atm. 1019
Zmień No Significant change. Runway 22: Clear and dry, , friction coefficient 0.70.
Surowy UACC 220930Z 23014MPS 9999 SCT015 BKN040 04/M03 Q1019 R22/0///70 NOSIG RMK QFE733/0977

VFR

4°C / -3°C

[Więcej]
Wiatr 230º 27kt
Widzialność >10km
Pogoda -
Chmury Scattered Clouds 1500ft
Broken Clouds 4000ft
Ciśn. atm. 1019
Zmień No Significant change. Runway 22: Clear and dry, , friction coefficient 0.70.
Surowy UACC 220900Z 23014MPS 9999 SCT015 BKN040 04/M03 Q1019 R22/0///70 NOSIG RMK QFE733/0977

VFR

5°C / -5°C

[Więcej]
Wiatr 230º 27kt Gust 37kt
Widzialność >10km
Pogoda -
Chmury Scattered Clouds 1500ft
Broken Clouds 4000ft
Ciśn. atm. 1019
Zmień No Significant change. Runway 22: Clear and dry, , friction coefficient 0.70.
Surowy UACC 220830Z 23014G19MPS 9999 SCT015 BKN040 05/M05 Q1019 R22/0///70 NOSIG RMK QFE733/0977

VFR

4°C / -5°C

[Więcej]
Wiatr 230º 25kt Gust 35kt
Widzialność >10km
Pogoda -
Chmury Scattered Clouds 1500ft
Broken Clouds 4000ft
Ciśn. atm. 1019
Zmień No Significant change. Runway 22: Clear and dry, , friction coefficient 0.70.
Surowy UACC 220800Z 23013G18MPS 9999 SCT015 BKN040 04/M05 Q1019 R22/0///70 NOSIG RMK QFE733/0977

VFR

5°C / -5°C

[Więcej]
Wiatr 230º 25kt
Widzialność >10km
Pogoda -
Chmury Scattered Clouds 1400ft
Broken Clouds 3600ft
Ciśn. atm. 1019
Zmień No Significant change. Runway 22: Clear and dry, , friction coefficient 0.70.
Surowy UACC 220730Z 23013MPS 9999 SCT014 BKN036 05/M05 Q1019 R22/0///70 NOSIG RMK QFE733/0977

VFR

4°C / -4°C

[Więcej]
Wiatr 230º 25kt
Widzialność >10km
Pogoda -
Chmury Scattered Clouds 1200ft
Broken Clouds 3600ft
Ciśn. atm. 1019
Zmień No Significant change. Runway 22: Clear and dry, , friction coefficient 0.70.
Surowy UACC 220700Z 23013MPS 9999 SCT012 BKN036 04/M04 Q1019 R22/0///70 NOSIG RMK QFE733/0977

VFR

4°C / -4°C

[Więcej]
Wiatr 220º 27kt
Widzialność >10km
Pogoda -
Chmury Scattered Clouds 1000ft
Broken Clouds 3600ft
Ciśn. atm. 1019
Zmień No Significant change. Runway 22: Clear and dry, , friction coefficient 0.70.
Surowy UACC 220630Z 22014MPS 9999 SCT010 BKN036 04/M04 Q1019 R22/0///70 NOSIG RMK QFE733/0977

VFR

3°C / -5°C

[Więcej]
Wiatr 230º 25kt
Widzialność >10km
Pogoda -
Chmury Few Clouds 3000ft
Broken Clouds 4300ft
Ciśn. atm. 1019
Zmień No Significant change. Runway 22: Clear and dry, , friction coefficient 0.70.
Surowy UACC 220600Z 23013MPS 9999 FEW030CB BKN043 03/M05 Q1019 R22/0///70 NOSIG RMK QFE733/0977

VFR

3°C / -4°C

[Więcej]
Wiatr 220º 23kt Gust 33kt
Widzialność >10km
Pogoda -
Chmury Scattered Clouds 3000ft
Broken Clouds 4300ft
Ciśn. atm. 1019
Zmień No Significant change. Runway 22: Clear and dry, , friction coefficient 0.70.
Surowy UACC 220543Z 22012G17MPS 9999 SCT030CB BKN043 03/M04 Q1019 R22/0///70 NOSIG RMK QFE733/0977

VFR

3°C / -5°C

[Więcej]
Wiatr 220º 21kt
Widzialność >10km
Pogoda -
Chmury Scattered Clouds 3000ft
Broken Clouds 4300ft
Ciśn. atm. 1019
Zmień No Significant change. Runway 22: Clear and dry, , friction coefficient 0.70.
Surowy UACC 220530Z 22011MPS 9999 SCT030CB BKN043 03/M05 Q1019 R22/0///70 NOSIG RMK QFE733/0977

VFR

3°C / -4°C

[Więcej]
Wiatr 220º 19kt Gust 29kt
Widzialność >10km
Pogoda -
Chmury Scattered Clouds 2600ft
Broken Clouds 3600ft
Ciśn. atm. 1019
Zmień No Significant change. Runway 22: Clear and dry, , friction coefficient 0.70.
Surowy UACC 220512Z 22010G15MPS 9999 SCT026CB BKN036 03/M04 Q1019 R22/0///70 NOSIG RMK QFE733/0977

VFR

2°C / -4°C

[Więcej]
Wiatr 210º 19kt
Widzialność >10km
Pogoda -
Chmury Scattered Clouds 1600ft
Broken Clouds 3600ft
Ciśn. atm. 1019
Zmień No Significant change. Runway 22: Clear and dry, , friction coefficient 0.70.
Surowy UACC 220500Z 21010MPS 9999 SCT016CB BKN036 02/M04 Q1019 R22/0///70 NOSIG RMK QFE733/0977

VFR

2°C / -3°C

[Więcej]
Wiatr 220º 19kt
Widzialność >10km
Pogoda -
Chmury Scattered Clouds 1600ft
Broken Clouds 3600ft
Ciśn. atm. 1019
Zmień No Significant change. Runway 22: Clear and dry, , friction coefficient 0.70.
Surowy UACC 220430Z 22010MPS 9999 SCT016 BKN036CB 02/M03 Q1019 R22/0///70 NOSIG RMK QFE733/0977

VFR

2°C / -3°C

[Więcej]
Wiatr 220º 16kt
Widzialność >10km
Pogoda -
Chmury Scattered Clouds 1600ft
Broken Clouds 3600ft
Ciśn. atm. 1019
Zmień No Significant change. Runway 22: Clear and dry, , friction coefficient 0.70.
Surowy UACC 220400Z 22008MPS 9999 SCT016 BKN036CB 02/M03 Q1019 R22/0///70 NOSIG RMK QFE733/0977

VFR

1°C / -2°C

[Więcej]
Wiatr 220º 16kt
Widzialność 9000m
Pogoda Light Showers Snow Light Showers Rain Showers Snow 3.00mm precipitation
Chmury Vertical Visibility of 0ft.
Broken Clouds 3200ft
Ciśn. atm. 1019
Zmień No Significant change. Runway 22: Clear and dry, , friction coefficient 0.70.
Surowy UACC 220330Z 22008MPS 9000 -SHSNRA SCT014 BKN032CB 01/M02 Q1019 RESHRA RESHSN R22/0///70 NOSIG RMK QFE733/0977

IFR

1°C / -2°C

[Więcej]
Wiatr 220º 17kt
Widzialność 3000m
Pogoda Showers Snow Showers Rain 3.00mm precipitation
Chmury Vertical Visibility of 0ft.
Broken Clouds 3000ft
Ciśn. atm. 1019
Zmień No Significant change. Runway 22: Clear and dry, , friction coefficient 0.70.
Surowy UACC 220312Z 22009MPS 3000 SHSNRA SCT010 BKN030CB 01/M02 Q1019 R22/0///70 NOSIG RMK QFE733/0977

VFR

1°C / -2°C

[Więcej]
Wiatr 220º 14kt
Widzialność >10km
Pogoda -
Chmury Scattered Clouds 1000ft
Broken Clouds 4000ft
Ciśn. atm. 1018
Zmień No Significant change. Runway 22: Clear and dry, , friction coefficient 0.70.
Surowy UACC 220300Z 22007MPS 9999 SCT010 BKN040CB 01/M02 Q1018 R22/0///70 NOSIG RMK QFE732/0977

MVFR

1°C / -2°C

[Więcej]
Wiatr 230º 14kt
Widzialność >10km
Pogoda -
Chmury Scattered Clouds 1000ft
Broken Clouds 3000ft
Ciśn. atm. 1018
Zmień No Significant change. Runway 22: Frost, 11-25% contamination, friction coefficient 0.55.
Surowy UACC 220230Z 23007MPS 9999 SCT010 BKN030CB 01/M02 Q1018 R22/32//55 NOSIG RMK QFE732/0976

TAF dla 51.02°N 71.47°E (UACC)

From till


Maximum Temperature 9ºC on . Minimum Temperature 0ºC on .
From till Wind 210º 23kt. Visibility 10km or more. Broken Clouds 1100ft. Broken Clouds 3000ft.
Temporarly from till Wind 220º 23kt. Gust 33kt. Visibility 5000m. Light Showers Snow Light Showers Rain . Scattered Clouds 700ft. Broken Clouds 1100ft.
Becoming from till Wind 220º 17kt. Visibility 10km or more. Broken Clouds 1100ft. Broken Clouds 3000ft.
Temporarly from till Visibility 3100m. Light Showers Rain Light Showers Snow . Scattered Clouds 500ft. Broken Clouds 1100ft.
Becoming from till Wind 230º 23kt. Visibility 10km or more. Broken Clouds 1100ft. Broken Clouds 3000ft.
Temporarly from till Wind 230º 23kt. Gust 33kt.

Surowy: TAF UACC 221102Z 2212/2312 21012MPS 9999 BKN011 BKN030 TX09/2309Z TN00/2218Z TEMPO 2212/2220 22012G17MPS 5000 -SHSNRA SCT007 BKN011CB BECMG 2220/2222 22009MPS TEMPO 2220/2303 3100 -SHRASN SCT005 BKN011CB BECMG 2303/2305 23012MPS TEMPO 2303/2312 23012G17MPS

Aktualne zdjęcia satelitarne i zdjęcia opadów deszczu dla 51.02°N 71.47°E

Wskaźnik lokalizacji znajduje się na 51.02°N 71.47°E. [Więcej]

Obraz satelitarny w czasie rzeczywistym łączy światło widzialne w ciągu dnia z promieniowaniem podczerwonym w nocy. W nocy obraz nie jest ciemny, ponieważ promieniowanie podczerwone może wykrywać różnice temperatur. Niestety niskie chmury i mgłę trudno odróżnić od temperatury gruntu, przez co mogą być prawie niewidoczne w nocy. Zdjęcia satelitarne Meteosat dla Europy są aktualizowane w czasie rzeczywistym co 5 minut. Obrazy GOES-16/GOES-17 (Ameryka Północna i Południowa) oraz Himawari (Azja) są aktualizowane co 10 minut.

Prawa autorskie 2021 EUMETSAT / meteoblue. / Prawa autorskie 2021 meteoblue

Radar i prognoza opadów na teraz dla 51.02°N 71.47°E

Mżawka
Lekki
Umiarkowane
Ulewne
Bardzo ciężkie
Grad

Wskaźnik lokalizacji jest umieszczony na 51.02°N 71.47°E. Animacja przedstawia radar opadów dla ostatniej godziny, jak również 1h prognozę pogody. Mżawka lub lekki opad śniegu może być niewidoczny dla radaru. Intensywność opadów jest oznaczona kolorami, od jasnoniebieskiego do pomarańczowego.